Location: Ward Pound Ridge Reservation
(41.2500°N, 73.6000°W)
Time: 15:35:33
(UTC-05:00)

Envisat - Pass Details

Date: 14 October 2017
Orbit: 764 x 766 km, 98.2° (Epoch: 13 December)

Event Time Altitude Azimuth Distance (km) Brightness Sun altitude
Exits shadow 20:20:03 48° 38° (NE) 1,002 3.3 -24.3°
Drops below altitude 10° 20:24:09 10° 357° (N) 2,313 5.6 -25.0°
Sets 20:26:30 0° 352° (N) 3,244 6.5 -25.5°
